�v������,���O�C��(��),���O���x(��),�Ɠx(lx),��O�J�Z���T�[(1:�~�J),����(m/s)
2023-06-01 00:00:00,19.4,93.7,2,0.0,1
2023-06-01 00:10:00,19.1,93.5,2,0.0,1
2023-06-01 00:20:00,19.3,93.3,2,0.0,0
2023-06-01 00:30:00,19.3,92.8,2,0.0,1
2023-06-01 00:40:00,19.4,92.4,2,0.0,1
2023-06-01 00:50:00,19.4,92,2,0.0,1.5
2023-06-01 01:00:00,19.3,91.3,2,0.0,1
2023-06-01 01:10:00,19.4,91.2,2,0.0,1
2023-06-01 01:20:00,19.3,91.7,2,0.0,1
2023-06-01 01:30:00,19.3,93.2,2,1.0,1
2023-06-01 01:40:00,19.2,94.3,2,0.0,1
2023-06-01 01:50:00,19.2,94.7,2,0.0,1
2023-06-01 02:00:00,19.1,94.7,2,0.0,0
2023-06-01 02:10:00,18.9,94.9,2,0.0,1
2023-06-01 02:20:00,19.2,94.9,2,0.0,1
2023-06-01 02:30:00,19.2,95.1,2,0.0,1
2023-06-01 02:40:00,19.2,94.5,2,0.0,1.5
2023-06-01 02:50:00,19,94.5,2,0.0,1
2023-06-01 03:00:00,19.1,94.7,2,0.0,0
2023-06-01 03:10:00,19.1,94.6,2,0.0,1
2023-06-01 03:20:00,19.1,94.6,2,0.0,1
2023-06-01 03:30:00,19,94.1,2,0.0,1
2023-06-01 03:40:00,19.1,93.9,2,0.0,1
2023-06-01 03:50:00,19.1,92.9,2,0.0,1
2023-06-01 04:00:00,19.1,92.9,2,0.0,2
2023-06-01 04:10:00,19.3,93.2,2,0.0,1
2023-06-01 04:20:00,19.1,93.5,2,0.0,1
2023-06-01 04:30:00,19.1,93.7,2,0.0,1
2023-06-01 04:40:00,19.1,93.7,2,0.0,1
2023-06-01 04:50:00,19.2,93.9,8,0.0,1
2023-06-01 05:00:00,19.1,94.3,48,0.0,2
2023-06-01 05:10:00,18.9,94.3,132,0.0,1
2023-06-01 05:20:00,19.2,93.9,344,0.0,2
2023-06-01 05:30:00,19.3,93.6,999.68,0.0,1
2023-06-01 05:40:00,19.2,93.2,999.68,0.0,1
2023-06-01 05:50:00,19.2,93,999.68,0.0,1
2023-06-01 06:00:00,19.2,93.1,1999.36,0.0,1
2023-06-01 06:10:00,19.5,93.1,1999.36,0.0,1
2023-06-01 06:20:00,19.4,92.7,1999.36,0.0,1
2023-06-01 06:30:00,19.6,92.7,1999.36,0.0,1
2023-06-01 06:40:00,19.6,92.3,2997.76,0.0,1
2023-06-01 06:50:00,19.6,92.1,2997.76,0.0,0
2023-06-01 07:00:00,19.9,91.7,3499.52,0.0,1
2023-06-01 07:10:00,20,91.4,4999.68,0.0,1
2023-06-01 07:20:00,20.1,91.1,4999.68,0.0,1
2023-06-01 07:30:00,20.4,90.9,6999.04,0.0,1
2023-06-01 07:40:00,20.6,90.5,10997.8,0.0,1
2023-06-01 07:50:00,20.5,90.1,11991,0.0,3
2023-06-01 08:00:00,20.6,90.3,13998.1,0.0,3
2023-06-01 08:10:00,20.7,89.8,13998.1,0.0,1.5
2023-06-01 08:20:00,21,89.3,17991.7,0.0,1
2023-06-01 08:30:00,21,88.6,19998.7,0.0,1
2023-06-01 08:40:00,21.3,88.1,25497.6,0.0,2
2023-06-01 08:50:00,21.7,86.2,29982.7,0.0,2
2023-06-01 09:00:00,22.1,85.4,32993.3,0.0,3
2023-06-01 09:10:00,22.2,84.2,26992.6,0.0,1
2023-06-01 09:20:00,22.6,83.2,38993.9,0.0,2
2023-06-01 09:30:00,22.6,81.5,31989.8,0.0,2
2023-06-01 09:40:00,22.9,81.1,31989.8,0.0,3
2023-06-01 09:50:00,23.2,80,26992.6,0.0,1.5
2023-06-01 10:00:00,23,81.1,26992.6,0.0,2
2023-06-01 10:10:00,22.9,81.7,19998.7,0.0,2
2023-06-01 10:20:00,22.6,82.6,20992,0.0,1
2023-06-01 10:30:00,22.8,82.9,21995.5,0.0,2
2023-06-01 10:40:00,22.6,82,21995.5,0.0,3
2023-06-01 10:50:00,22.8,81.4,16998.4,0.0,2.5
2023-06-01 11:00:00,22.9,81.2,22999,0.0,3
2023-06-01 11:10:00,22.9,81,18995.2,0.0,1
2023-06-01 11:20:00,23.1,80.5,25989.1,0.0,3
2023-06-01 11:30:00,23.5,79.5,18995.2,0.0,3.5
2023-06-01 11:40:00,23.1,80.5,17991.7,0.0,3.5
2023-06-01 11:50:00,23,81.5,21995.5,0.0,2
2023-06-01 12:00:00,23.2,80.8,27484.2,0.0,2
2023-06-01 12:10:00,22.9,85.9,36986.9,0.0,3
2023-06-01 12:20:00,22.7,86.5,31989.8,1.0,4
2023-06-01 12:30:00,22.2,88.8,32993.3,1.0,4.5
2023-06-01 12:40:00,22.6,86.4,34979.8,0.0,3.5
2023-06-01 12:50:00,23.2,84.4,45998.1,0.0,2.5
2023-06-01 13:00:00,24,78.5,38993.9,0.0,3
2023-06-01 13:10:00,24.3,77.5,36986.9,0.0,3
2023-06-01 13:20:00,24.5,75.1,41984,0.0,4
2023-06-01 13:30:00,24.6,74.9,33996.8,0.0,2
2023-06-01 13:40:00,24,76.2,26992.6,0.0,4.5
2023-06-01 13:50:00,23.8,78.5,27996.2,0.0,2.5
2023-06-01 14:00:00,23.9,78.2,26992.6,0.0,2
2023-06-01 14:10:00,23.7,78.9,22999,0.0,3
2023-06-01 14:20:00,23.4,79.9,21995.5,0.0,2
2023-06-01 14:30:00,23.6,80.2,15994.9,0.0,2.5
2023-06-01 14:40:00,23.1,82,11991,0.0,1
2023-06-01 14:50:00,23,82.4,9999.36,0.0,2
2023-06-01 15:00:00,22.7,85.7,10997.8,0.0,1
2023-06-01 15:10:00,22.6,87.1,8995.84,1.0,3
2023-06-01 15:20:00,22,89.2,7997.44,1.0,2
2023-06-01 15:30:00,22.2,91.8,6999.04,1.0,1
2023-06-01 15:40:00,21.8,93.6,4999.68,1.0,1
2023-06-01 15:50:00,21.6,95.1,4999.68,1.0,1
2023-06-01 16:00:00,21.2,96.6,3998.72,1.0,1
2023-06-01 16:10:00,21.3,97.5,4999.68,1.0,1
2023-06-01 16:20:00,21.3,96.8,5995.52,1.0,1
2023-06-01 16:30:00,21.2,96.6,7997.44,1.0,1
2023-06-01 16:40:00,21.3,96.3,6999.04,1.0,0
2023-06-01 16:50:00,21,96.5,5995.52,1.0,1
2023-06-01 17:00:00,21.2,96.4,4999.68,1.0,1
2023-06-01 17:10:00,21.1,96.2,4999.68,1.0,2
2023-06-01 17:20:00,21.3,96.3,3998.72,1.0,3
2023-06-01 17:30:00,21.2,96.3,3998.72,1.0,3
2023-06-01 17:40:00,21.2,96.3,3499.52,1.0,3
2023-06-01 17:50:00,21.1,96.4,3998.72,1.0,2
2023-06-01 18:00:00,21.2,96.4,3998.72,1.0,2
2023-06-01 18:10:00,21.3,96.3,1999.36,1.0,1
2023-06-01 18:20:00,21.4,96.3,1999.36,1.0,1
2023-06-01 18:30:00,21.1,96.2,1999.36,0.0,1
2023-06-01 18:40:00,21.4,96.1,999.68,0.0,1
2023-06-01 18:50:00,21.1,96,999.68,0.0,1
2023-06-01 19:00:00,21.4,96,999.68,0.0,1
2023-06-01 19:10:00,21.2,96,483.84,0.0,1
2023-06-01 19:20:00,21.2,96,160,0.0,0.5
2023-06-01 19:30:00,21.3,95.9,44,0.0,1
2023-06-01 19:40:00,21.2,95.9,8,0.0,1
2023-06-01 19:50:00,21.2,96,2,0.0,2
2023-06-01 20:00:00,21.2,96,2,0.0,2
2023-06-01 20:10:00,21.1,96.1,2,0.0,1
2023-06-01 20:20:00,21.2,96.1,2,0.0,1
2023-06-01 20:30:00,21.2,96,2,0.0,1
2023-06-01 20:40:00,21.1,96,2,1.0,0
2023-06-01 20:50:00,21.2,96,2,0.0,0
2023-06-01 21:00:00,21.2,95.9,2,0.0,1
2023-06-01 21:10:00,21.1,95.9,2,0.0,1
2023-06-01 21:20:00,21.3,95.9,2,0.0,1.5
2023-06-01 21:30:00,21,95.9,2,0.0,1
2023-06-01 21:40:00,21.1,95.9,2,0.0,0
2023-06-01 21:50:00,21.1,95.9,2,0.0,0
2023-06-01 22:00:00,21.1,95.9,2,1.0,1
2023-06-01 22:10:00,21.1,95.9,2,0.0,1
2023-06-01 22:20:00,21.1,95.8,2,0.0,1
2023-06-01 22:30:00,21.2,95.8,2,0.0,1
2023-06-01 22:40:00,21.2,95.8,2,0.0,1
2023-06-01 22:50:00,21.2,95.8,2,0.0,1
2023-06-01 23:00:00,20.8,95.7,2,0.0,0
2023-06-01 23:10:00,21,95.7,2,0.0,0
2023-06-01 23:20:00,20.8,95.7,2,0.0,0
2023-06-01 23:30:00,21,95.7,2,1.0,1
2023-06-01 23:40:00,21,95.6,2,1.0,1
2023-06-01 23:50:00,20.9,95.6,2,1.0,0.5
2023-06-02 00:00:00,21.2,95.6,2,1.0,1
2023-06-02 00:10:00,21,95.6,2,1.0,0
2023-06-02 00:20:00,21,95.5,2,0.0,0
2023-06-02 00:30:00,20.8,95.5,2,1.0,1
2023-06-02 00:40:00,20.7,95.5,2,1.0,0
2023-06-02 00:50:00,21,95.5,2,1.0,1
2023-06-02 01:00:00,20.7,95.5,2,1.0,1
2023-06-02 01:10:00,20.6,95.5,2,1.0,1
2023-06-02 01:20:00,20.1,95.6,2,1.0,2
2023-06-02 01:30:00,20.2,95.6,2,1.0,2
2023-06-02 01:40:00,19.5,95.6,2,1.0,2
2023-06-02 01:50:00,19.4,95.7,2,1.0,2
2023-06-02 02:00:00,19.7,95.7,2,1.0,2
2023-06-02 02:10:00,19.5,95.7,2,1.0,0
2023-06-02 02:20:00,19.3,95.7,2,1.0,1
2023-06-02 02:30:00,19.4,95.7,0,1.0,2
2023-06-02 02:40:00,19.2,95.7,2,1.0,1
2023-06-02 02:50:00,19.4,95.7,2,1.0,1
2023-06-02 03:00:00,19.5,95.7,2,1.0,0
2023-06-02 03:10:00,19.5,95.7,2,1.0,1
2023-06-02 03:20:00,19.3,95.7,2,1.0,1
2023-06-02 03:30:00,19.1,95.7,2,1.0,2
2023-06-02 03:40:00,19,95.7,2,1.0,0
2023-06-02 03:50:00,19.1,95.7,2,1.0,1
2023-06-02 04:00:00,19,95.7,2,1.0,0.5
2023-06-02 04:10:00,19.1,95.7,2,1.0,1
2023-06-02 04:20:00,18.9,95.7,2,1.0,1
2023-06-02 04:30:00,18.9,95.8,2,1.0,1
2023-06-02 04:40:00,18.7,95.8,2,1.0,2
2023-06-02 04:50:00,18.6,95.8,2,1.0,1
2023-06-02 05:00:00,18.8,95.8,4,1.0,3
2023-06-02 05:10:00,18.7,95.8,12,1.0,1
2023-06-02 05:20:00,18.7,95.8,30,1.0,0
2023-06-02 05:30:00,18.7,95.8,22,1.0,1
2023-06-02 05:40:00,18.8,95.8,140,1.0,0.5
2023-06-02 05:50:00,18.8,95.8,281.92,1.0,0
2023-06-02 06:00:00,18.9,95.7,224,1.0,0
2023-06-02 06:10:00,19,95.7,336,1.0,1
2023-06-02 06:20:00,18.9,95.8,999.68,1.0,1
2023-06-02 06:30:00,19.1,95.7,999.68,1.0,1
2023-06-02 06:40:00,19,95.7,999.68,1.0,0
2023-06-02 06:50:00,19.2,95.7,999.68,1.0,1
2023-06-02 07:00:00,18.9,95.7,1999.36,1.0,1
2023-06-02 07:10:00,19.2,95.7,1999.36,1.0,0
2023-06-02 07:20:00,19.2,95.7,2997.76,1.0,1
2023-06-02 07:30:00,19.2,95.6,1999.36,1.0,0
2023-06-02 07:40:00,19.2,95.6,2997.76,1.0,0.5
2023-06-02 07:50:00,19.4,95.6,2997.76,1.0,1
2023-06-02 08:00:00,19.5,95.6,2997.76,1.0,0
2023-06-02 08:10:00,19.7,95.6,3998.72,1.0,1
2023-06-02 08:20:00,19.6,95.6,6999.04,1.0,0.5
2023-06-02 08:30:00,19.9,95.5,11991,1.0,0
2023-06-02 08:40:00,20.1,95.5,6999.04,1.0,0
2023-06-02 08:50:00,20,95.4,5995.52,1.0,0
2023-06-02 09:00:00,19.9,95.4,7997.44,1.0,1
2023-06-02 09:10:00,20,95.4,4999.68,1.0,1
2023-06-02 09:20:00,20.1,95.4,8995.84,1.0,1
2023-06-02 09:30:00,20,95.4,8995.84,1.0,1
2023-06-02 09:40:00,20.4,95.4,11991,1.0,1
2023-06-02 09:50:00,20.3,95.3,11991,1.0,2
2023-06-02 10:00:00,20.2,95.4,10997.8,1.0,1
2023-06-02 10:10:00,20.5,95.3,8995.84,1.0,1
2023-06-02 10:20:00,20.7,95.3,8995.84,1.0,1
2023-06-02 10:30:00,20.8,95.3,12994.6,1.0,1
2023-06-02 10:40:00,20.8,95.2,12994.6,1.0,1
2023-06-02 10:50:00,21.2,95.2,11991,1.0,1
2023-06-02 11:00:00,20.9,95.2,12994.6,1.0,2
2023-06-02 11:10:00,20.9,95.2,8995.84,1.0,1
2023-06-02 11:20:00,21,95.3,8995.84,1.0,1.5
2023-06-02 11:30:00,21,95.2,8995.84,1.0,0
2023-06-02 11:40:00,21.2,95.2,8995.84,1.0,1
2023-06-02 11:50:00,21.1,95.3,8995.84,1.0,1
2023-06-02 12:00:00,20.9,95.3,6999.04,1.0,1
2023-06-02 12:10:00,21.4,95.3,10997.8,1.0,1
2023-06-02 12:20:00,21.5,95.2,15994.9,1.0,1
2023-06-02 12:30:00,21.4,95.2,17991.7,1.0,1
2023-06-02 12:40:00,21.7,95.1,19998.7,1.0,1
2023-06-02 12:50:00,21.9,95,18995.2,1.0,1
2023-06-02 13:00:00,21.8,95,19998.7,1.0,1
2023-06-02 13:10:00,21.8,95,19998.7,1.0,1
2023-06-02 13:20:00,22,94.9,21995.5,1.0,1
2023-06-02 13:30:00,22.1,94.9,21995.5,1.0,0
2023-06-02 13:40:00,22.1,94.9,18995.2,1.0,0.5
2023-06-02 13:50:00,22.2,95,20992,1.0,1
2023-06-02 14:00:00,22,95,17991.7,1.0,1
2023-06-02 14:10:00,22.1,95,22999,1.0,1
2023-06-02 14:20:00,22,95,21995.5,1.0,1
2023-06-02 14:30:00,22,95.1,16998.4,1.0,1
2023-06-02 14:40:00,22.3,95.1,8995.84,1.0,1
2023-06-02 14:50:00,22.1,95.1,9999.36,1.0,2
2023-06-02 15:00:00,21.7,95.2,8995.84,1.0,2
2023-06-02 15:10:00,21.7,95.2,6999.04,1.0,1
2023-06-02 15:20:00,21.6,95.2,14991.4,1.0,0
2023-06-02 15:30:00,21.6,95.2,14991.4,1.0,2
2023-06-02 15:40:00,21.6,95.2,13998.1,1.0,1
2023-06-02 15:50:00,21.7,95.1,11991,1.0,1
2023-06-02 16:00:00,21.9,95.1,16998.4,1.0,1
2023-06-02 16:10:00,22,95.1,19998.7,1.0,1
2023-06-02 16:20:00,21.6,95.1,13998.1,1.0,2
2023-06-02 16:30:00,21.7,95.1,10997.8,1.0,1
2023-06-02 16:40:00,21.9,95.1,4999.68,1.0,1
2023-06-02 16:50:00,21.9,95.1,4999.68,1.0,1
2023-06-02 17:00:00,22.2,95.1,7997.44,1.0,2
2023-06-02 17:10:00,22.1,95.1,4999.68,0.0,1
2023-06-02 17:20:00,21.9,95.2,2997.76,0.0,2
2023-06-02 17:30:00,21.7,95.2,5995.52,0.0,1
2023-06-02 17:40:00,21.8,95.2,5995.52,0.0,1
2023-06-02 17:50:00,21.9,95.2,8995.84,0.0,1
2023-06-02 18:00:00,22.2,95.2,7997.44,0.0,1
2023-06-02 18:10:00,21.8,95.2,1999.36,0.0,1
2023-06-02 18:20:00,21.7,95.3,1999.36,0.0,1
2023-06-02 18:30:00,21.7,95.3,499.84,0.0,0
2023-06-02 18:40:00,21.6,95.3,499.84,0.0,1
2023-06-02 18:50:00,21.3,95.4,371.84,0.0,1
2023-06-02 19:00:00,21.4,95.4,277.92,0.0,1
2023-06-02 19:10:00,21.6,95.4,124,0.0,1
2023-06-02 19:20:00,21.2,95.4,50,0.0,1
2023-06-02 19:30:00,20.9,95.4,16,0.0,1
2023-06-02 19:40:00,20.7,95.4,4,0.0,1
2023-06-02 19:50:00,20.7,95.5,2,0.0,1.5
2023-06-02 20:00:00,20.9,95.4,2,0.0,1
2023-06-02 20:10:00,20.9,95.4,2,0.0,0
2023-06-02 20:20:00,20.8,95.4,2,0.0,0
2023-06-02 20:30:00,20.9,95.4,2,0.0,1
2023-06-02 20:40:00,20.6,95.4,2,0.0,0
2023-06-02 20:50:00,20.8,95.4,2,0.0,0
2023-06-02 21:00:00,21,95.4,2,0.0,0
2023-06-02 21:10:00,21.1,95.4,2,0.0,1
2023-06-02 21:20:00,21.2,95.4,2,0.0,1
2023-06-02 21:30:00,21.1,95.4,2,0.0,0
2023-06-02 21:40:00,21.2,95.3,2,0.0,1
2023-06-02 21:50:00,21.1,95.3,2,0.0,1
2023-06-02 22:00:00,21.3,95.3,2,0.0,0
2023-06-02 22:10:00,21.3,95.3,2,0.0,1
2023-06-02 22:20:00,21.5,95.3,2,0.0,2
2023-06-02 22:30:00,21.6,95.4,2,0.0,3
2023-06-02 22:40:00,22.2,96.9,2,0.0,2
2023-06-02 22:50:00,22.3,95.3,2,0.0,1
2023-06-02 23:00:00,22.3,95.1,2,0.0,1
2023-06-02 23:10:00,22.2,95.4,2,0.0,2
2023-06-02 23:20:00,22.1,95.2,2,0.0,1
2023-06-02 23:30:00,22,95.4,2,0.0,1.5
2023-06-02 23:40:00,22.1,95.6,2,0.0,1
2023-06-02 23:50:00,21.9,95.7,2,0.0,2
2023-06-03 00:00:00,22,94.6,2,0.0,2
2023-06-03 00:10:00,21.7,95.2,2,0.0,2
2023-06-03 00:20:00,21.7,95.5,0,0.0,1
2023-06-03 00:30:00,21.6,95.2,2,0.0,2
2023-06-03 00:40:00,21.7,95.3,2,0.0,2
2023-06-03 00:50:00,21.6,95.3,0,0.0,1
2023-06-03 01:00:00,21.5,95.3,2,0.0,3
2023-06-03 01:10:00,21.5,94.3,2,0.0,2
2023-06-03 01:20:00,21.2,94.7,2,0.0,1
2023-06-03 01:30:00,21.2,95.1,2,0.0,2
2023-06-03 01:40:00,21.1,93.8,0,0.0,7
2023-06-03 01:50:00,21,92.7,2,0.0,5.5
2023-06-03 02:00:00,21.2,89.7,2,0.0,5.5
2023-06-03 02:10:00,21,89.8,2,0.0,4
2023-06-03 02:20:00,21.1,87.7,2,0.0,2
2023-06-03 02:30:00,20.8,87.4,2,0.0,1
2023-06-03 02:40:00,21.1,83.7,0,0.0,4.5
2023-06-03 02:50:00,21,84,0,0.0,2
2023-06-03 03:00:00,20.9,84,0,0.0,5.5
2023-06-03 03:10:00,20.8,85.8,0,0.0,4
2023-06-03 03:20:00,20.8,86.3,2,0.0,4
2023-06-03 03:30:00,20.6,86.4,2,0.0,5
2023-06-03 03:40:00,20.7,85.7,2,0.0,4
2023-06-03 03:50:00,20.4,84.8,0,0.0,2
2023-06-03 04:00:00,20.5,83.9,0,0.0,5
2023-06-03 04:10:00,20.4,83.7,0,0.0,2
2023-06-03 04:20:00,20.4,82.7,2,0.0,4
2023-06-03 04:30:00,20.1,82.9,2,0.0,4
2023-06-03 04:40:00,20.2,83.2,10,0.0,2.5
2023-06-03 04:50:00,20.1,81.8,86,0.0,4
2023-06-03 05:00:00,20.1,82.2,384,0.0,4
2023-06-03 05:10:00,20,81.6,999.68,0.0,3
2023-06-03 05:20:00,20.2,81.6,999.68,0.0,1.5
2023-06-03 05:30:00,20.3,82.4,2997.76,0.0,4
2023-06-03 05:40:00,20.1,82,4999.68,0.0,3
2023-06-03 05:50:00,20.3,81,5995.52,0.0,2
2023-06-03 06:00:00,20.6,78.2,7997.44,0.0,3.5
2023-06-03 06:10:00,20.7,76.7,8995.84,0.0,2
2023-06-03 06:20:00,20.6,77.6,9999.36,0.0,2
2023-06-03 06:30:00,20.5,78.2,11991,0.0,4
2023-06-03 06:40:00,20.7,78.9,12994.6,0.0,2.5
2023-06-03 06:50:00,20.6,79.4,12994.6,0.0,6
2023-06-03 07:00:00,20.7,77.2,13998.1,0.0,7
2023-06-03 07:10:00,20.8,77.7,14991.4,0.0,3
2023-06-03 07:20:00,21,76.2,15994.9,0.0,4
2023-06-03 07:30:00,21,76.7,16998.4,0.0,7
2023-06-03 07:40:00,21,76.9,16998.4,0.0,6.5
2023-06-03 07:50:00,21.1,75.6,18493.4,0.0,7
2023-06-03 08:00:00,21.3,74.8,49971.2,0.0,3
2023-06-03 08:10:00,21.3,75.8,81961,0.0,6
2023-06-03 08:20:00,21.6,73.9,83968,0.0,2
2023-06-03 08:30:00,21.8,73,82985,0.0,2.5
2023-06-03 08:40:00,22,72.5,81961,0.0,3
2023-06-03 08:50:00,22.7,69.9,78970.9,0.0,2.5
2023-06-03 09:00:00,22.5,69.3,75980.8,0.0,1
2023-06-03 09:10:00,22.8,67.7,72499.2,0.0,1
2023-06-03 09:20:00,22.9,66.3,68976.6,0.0,1
2023-06-03 09:30:00,23.1,67.8,59473.9,0.0,1
2023-06-03 09:40:00,22.7,66.3,53493.8,0.0,3
2023-06-03 09:50:00,22.8,65,54476.8,0.0,2
2023-06-03 10:00:00,23,62.4,43991,0.0,3.5
2023-06-03 10:10:00,23.2,61.5,45465.6,0.0,3
2023-06-03 10:20:00,23.3,62.1,44482.6,0.0,5
2023-06-03 10:30:00,23.4,61.5,31989.8,0.0,5
2023-06-03 10:40:00,23.2,61.9,40489,0.0,4.5
2023-06-03 10:50:00,23.7,60.7,31498.2,0.0,2
2023-06-03 11:00:00,23.8,58.2,31989.8,0.0,6
2023-06-03 11:10:00,24,56.3,27996.2,0.0,2.5
2023-06-03 11:20:00,24,53.7,27996.2,0.0,6
2023-06-03 11:30:00,24.2,53,26992.6,0.0,5
2023-06-03 11:40:00,24.3,52,27996.2,0.0,3.5
2023-06-03 11:50:00,24.6,49.3,25989.1,0.0,6
2023-06-03 12:00:00,24.7,50.5,27996.2,0.0,6.5
2023-06-03 12:10:00,25.4,48.6,25497.6,0.0,4
2023-06-03 12:20:00,25.3,46.4,23490.6,0.0,5
2023-06-03 12:30:00,25.4,47.4,24985.6,0.0,3.5
2023-06-03 12:40:00,25.1,49.2,26992.6,0.0,3.5
2023-06-03 12:50:00,25.7,46,26992.6,0.0,4
2023-06-03 13:00:00,25.4,46,26992.6,0.0,5.5
2023-06-03 13:10:00,25.7,44.5,27996.2,0.0,4
2023-06-03 13:20:00,25.6,44.8,27996.2,0.0,6
2023-06-03 13:30:00,25.7,46.2,28487.7,0.0,5.5
2023-06-03 13:40:00,26.1,43.6,27996.2,0.0,5
2023-06-03 13:50:00,26.1,44.6,28999.7,0.0,4.5
2023-06-03 14:00:00,26.1,44,28999.7,0.0,4.5
2023-06-03 14:10:00,26.3,45.1,28999.7,0.0,4
2023-06-03 14:20:00,26.1,44.4,28999.7,0.0,5
2023-06-03 14:30:00,26.4,42.9,29491.2,0.0,4
2023-06-03 14:40:00,26.3,42.5,29982.7,0.0,4.5
2023-06-03 14:50:00,26.3,41.9,29982.7,0.0,3.5
2023-06-03 15:00:00,26.2,42.6,30986.2,0.0,6.5
2023-06-03 15:10:00,26.3,41.9,31989.8,0.0,2
2023-06-03 15:20:00,26.3,41.9,31989.8,0.0,4.5
2023-06-03 15:30:00,26.3,42.9,31989.8,0.0,4
2023-06-03 15:40:00,26.4,42.5,32993.3,0.0,4.5
2023-06-03 15:50:00,26.2,42.3,32993.3,0.0,3.5
2023-06-03 16:00:00,26.1,43.6,32993.3,0.0,4
2023-06-03 16:10:00,26.1,44.6,32993.3,0.0,4
2023-06-03 16:20:00,26.1,42.7,32993.3,0.0,5
2023-06-03 16:30:00,26,44.4,31989.8,0.0,5
2023-06-03 16:40:00,25.8,44.7,31989.8,0.0,4
2023-06-03 16:50:00,26.1,43.5,30986.2,0.0,4
2023-06-03 17:00:00,25.8,42.1,30986.2,0.0,2
2023-06-03 17:10:00,25.9,44.5,29982.7,0.0,7
2023-06-03 17:20:00,25.7,43.6,28999.7,0.0,4
2023-06-03 17:30:00,25.6,44.2,26992.6,0.0,2.5
2023-06-03 17:40:00,25.6,46,25989.1,0.0,5
2023-06-03 17:50:00,25.4,45.2,24985.6,0.0,2
2023-06-03 18:00:00,25.1,46.4,22999,0.0,6
2023-06-03 18:10:00,25.2,45.5,20992,0.0,2
2023-06-03 18:20:00,25.5,45,19998.7,0.0,3
2023-06-03 18:30:00,25,45.6,17991.7,0.0,5
2023-06-03 18:40:00,24.8,46.1,12994.6,0.0,4
2023-06-03 18:50:00,24.8,48.1,9999.36,0.0,2
2023-06-03 19:00:00,24.4,50.1,6999.04,0.0,2
2023-06-03 19:10:00,24.1,51.2,1999.36,0.0,3
2023-06-03 19:20:00,23.8,52.5,999.68,0.0,5
2023-06-03 19:30:00,23.6,53.9,424,0.0,3
2023-06-03 19:40:00,23.4,54.3,52,0.0,2
2023-06-03 19:50:00,23.1,56,6,0.0,2
2023-06-03 20:00:00,22.8,57.8,2,0.0,2
2023-06-03 20:10:00,22.7,58.4,2,0.0,1
2023-06-03 20:20:00,22.5,58.4,2,0.0,1.5
2023-06-03 20:30:00,22.3,60.2,2,0.0,2.5
2023-06-03 20:40:00,22.1,62.2,2,0.0,3
2023-06-03 20:50:00,22.2,63.6,2,0.0,1
2023-06-03 21:00:00,22,64.9,2,0.0,2
2023-06-03 21:10:00,22,65.8,2,0.0,1
2023-06-03 21:20:00,21.9,66,2,0.0,0
2023-06-03 21:30:00,21.7,66.1,2,0.0,0
2023-06-03 21:40:00,21.4,63.4,2,0.0,1
2023-06-03 21:50:00,21.3,62.6,2,0.0,1
2023-06-03 22:00:00,21,66,2,0.0,1
2023-06-03 22:10:00,20.7,64.8,2,0.0,1
2023-06-03 22:20:00,20.4,65.1,2,0.0,1.5
2023-06-03 22:30:00,20,66.7,2,0.0,1
2023-06-03 22:40:00,19.8,66.8,2,0.0,1
2023-06-03 22:50:00,19.6,67.3,2,0.0,2
2023-06-03 23:00:00,19.6,69,2,0.0,1
2023-06-03 23:10:00,19.5,69.6,2,0.0,1
2023-06-03 23:20:00,19.1,71,2,0.0,1
2023-06-03 23:30:00,18.8,70.7,2,0.0,1
2023-06-03 23:40:00,19,70.1,0,0.0,1
2023-06-03 23:50:00,18.9,69.2,2,0.0,1
2023-06-04 00:00:00,18.9,68.8,2,0.0,2
2023-06-04 00:10:00,18.7,68.9,2,0.0,2
2023-06-04 00:20:00,18.7,68.3,2,0.0,2
2023-06-04 00:30:00,18.6,68.6,2,0.0,2
2023-06-04 00:40:00,18.3,68.7,2,0.0,2
2023-06-04 00:50:00,18.1,69.3,2,0.0,1
2023-06-04 01:00:00,17.8,69.4,2,0.0,1
2023-06-04 01:10:00,17.8,69.8,2,0.0,1
2023-06-04 01:20:00,17.7,69.8,2,0.0,1
2023-06-04 01:30:00,17.5,70.8,2,0.0,1
2023-06-04 01:40:00,17.5,71.9,2,0.0,1
2023-06-04 01:50:00,17.5,72.7,2,0.0,1
2023-06-04 02:00:00,17.1,72.6,2,0.0,1
2023-06-04 02:10:00,17.1,72.4,2,0.0,1
2023-06-04 02:20:00,16.9,72.2,0,0.0,1
2023-06-04 02:30:00,16.9,70.9,2,0.0,1
2023-06-04 02:40:00,16.9,69.7,2,0.0,2
2023-06-04 02:50:00,16.9,71.6,0,0.0,1
2023-06-04 03:00:00,16.5,73.6,2,0.0,1
2023-06-04 03:10:00,16.5,73.7,0,0.0,1
2023-06-04 03:20:00,16.5,73.3,2,0.0,1
2023-06-04 03:30:00,16.4,73.6,2,0.0,1
2023-06-04 03:40:00,16.3,74.4,0,0.0,2
2023-06-04 03:50:00,16.3,73.9,0,0.0,0.5
2023-06-04 04:00:00,16.3,74.1,2,0.0,1
2023-06-04 04:10:00,16.2,74,2,0.0,1
2023-06-04 04:20:00,16.1,74,2,0.0,1
2023-06-04 04:30:00,16.1,74.8,2,0.0,1
2023-06-04 04:40:00,15.8,74.7,8,0.0,1
2023-06-04 04:50:00,15.8,74.3,60,0.0,1
2023-06-04 05:00:00,16,74.1,329.92,0.0,1
2023-06-04 05:10:00,16.1,74.8,999.68,0.0,1
2023-06-04 05:20:00,15.9,75.4,1999.36,0.0,1
2023-06-04 05:30:00,16.2,74.8,2997.76,0.0,0
2023-06-04 05:40:00,16.8,72.7,4999.68,0.0,1
2023-06-04 05:50:00,17.5,70.3,5995.52,0.0,0
2023-06-04 06:00:00,18.1,67.3,6999.04,0.0,0
2023-06-04 06:10:00,18.5,64.3,8995.84,0.0,0
2023-06-04 06:20:00,17.6,68.4,10997.8,0.0,1
2023-06-04 06:30:00,17.3,70.8,10997.8,0.0,1
2023-06-04 06:40:00,17.2,72.2,10997.8,0.0,1
2023-06-04 06:50:00,17.6,70.6,11991,0.0,1
2023-06-04 07:00:00,18,69.3,14499.8,0.0,2
2023-06-04 07:10:00,18.7,67.2,16998.4,0.0,1
2023-06-04 07:20:00,19.3,65.5,15994.9,0.0,1
2023-06-04 07:30:00,19.8,63.8,21995.5,0.0,1
2023-06-04 07:40:00,20.2,62.1,16998.4,0.0,1
2023-06-04 07:50:00,20.6,61.2,23982.1,0.0,1
2023-06-04 08:00:00,21.1,59.6,27996.2,0.0,1
2023-06-04 08:10:00,21.6,58.4,24985.6,0.0,1
2023-06-04 08:20:00,22.3,55.7,22999,0.0,1
2023-06-04 08:30:00,22.3,57.3,52469.8,0.0,0
2023-06-04 08:40:00,22.8,53.5,93962.2,0.0,1
2023-06-04 08:50:00,23.5,49.6,87982.1,0.0,1
2023-06-04 09:00:00,24.6,45,89948.2,0.0,0
2023-06-04 09:10:00,25.7,41.8,65986.6,0.0,1
2023-06-04 09:20:00,23.1,56.2,53985.3,0.0,3
2023-06-04 09:30:00,22.2,62.8,45998.1,0.0,2
2023-06-04 09:40:00,21.3,62.9,44974.1,0.0,4
2023-06-04 09:50:00,21.6,61.5,35983.4,0.0,3
2023-06-04 10:00:00,22,59.7,43991,0.0,4
2023-06-04 10:10:00,22.1,60.9,45998.1,0.0,2
2023-06-04 10:20:00,21.7,67.7,49479.7,0.0,5
2023-06-04 10:30:00,21.4,71.9,34488.3,0.0,4
2023-06-04 10:40:00,21.7,72.5,28999.7,0.0,3.5
2023-06-04 10:50:00,22.5,68.8,38481.9,0.0,3
2023-06-04 11:00:00,22.4,67.8,27484.2,0.0,5
2023-06-04 11:10:00,21.8,75.9,38993.9,0.0,4
2023-06-04 11:20:00,21.3,79.2,36986.9,0.0,3
2023-06-04 11:30:00,22,74.4,32993.3,0.0,3.5
2023-06-04 11:40:00,22.1,72.2,38993.9,0.0,2
2023-06-04 11:50:00,22.9,68.6,43991,0.0,2.5
2023-06-04 12:00:00,22.7,66,36986.9,0.0,3.5
2023-06-04 12:10:00,22.5,67.6,36986.9,0.0,3
2023-06-04 12:20:00,22.3,70.2,34979.8,0.0,3
2023-06-04 12:30:00,22.6,69.2,31989.8,0.0,1.5
2023-06-04 12:40:00,22.3,69.7,32993.3,0.0,2.5
2023-06-04 12:50:00,22.2,68.8,29982.7,0.0,3
2023-06-04 13:00:00,23.1,57.8,30986.2,0.0,1
2023-06-04 13:10:00,23.4,60.2,32993.3,0.0,3
2023-06-04 13:20:00,23.8,53.4,46981.1,0.0,2.5
2023-06-04 13:30:00,24.6,50,37990.4,0.0,1.5
2023-06-04 13:40:00,24.5,44,37990.4,0.0,2
2023-06-04 13:50:00,25.1,48.5,42475.5,0.0,1.5
2023-06-04 14:00:00,25.5,47.8,45465.6,0.0,2
2023-06-04 14:10:00,26.7,43.3,42967,0.0,1
2023-06-04 14:20:00,27.5,41.6,44974.1,0.0,1
2023-06-04 14:30:00,27.5,42.1,43991,0.0,1.5
2023-06-04 14:40:00,26.6,46.6,27996.2,0.0,2
2023-06-04 14:50:00,26.5,45,42475.5,0.0,2
2023-06-04 15:00:00,26.9,47.8,43499.5,0.0,2
2023-06-04 15:10:00,27.5,44.6,43499.5,0.0,2
2023-06-04 15:20:00,28,40.5,37990.4,0.0,2
2023-06-04 15:30:00,28,40.7,34979.8,0.0,1
2023-06-04 15:40:00,27.5,42.3,34979.8,0.0,3
2023-06-04 15:50:00,27.5,41.3,30494.7,0.0,3
2023-06-04 16:00:00,27.5,41.4,29982.7,0.0,2
2023-06-04 16:10:00,25.1,55.1,34979.8,0.0,3.5
2023-06-04 16:20:00,24,63.4,40489,0.0,5
2023-06-04 16:30:00,23.5,68.2,40489,0.0,4
2023-06-04 16:40:00,22.8,72.7,44974.1,0.0,4
2023-06-04 16:50:00,22.7,73.3,37990.4,0.0,2
2023-06-04 17:00:00,22,77.4,11991,0.0,4.5
2023-06-04 17:10:00,21.9,77.4,19998.7,0.0,3.5
2023-06-04 17:20:00,21.6,79,18995.2,0.0,5
2023-06-04 17:30:00,21.9,75.7,29982.7,0.0,3.5
2023-06-04 17:40:00,22.1,73,22999,0.0,2.5
2023-06-04 17:50:00,22.2,70.9,16998.4,0.0,2.5
2023-06-04 18:00:00,23,67.7,19998.7,0.0,1
2023-06-04 18:10:00,23,64,16998.4,0.0,3
2023-06-04 18:20:00,23.5,62.5,14991.4,0.0,1
2023-06-04 18:30:00,23.1,62.9,12994.6,0.0,2
2023-06-04 18:40:00,22.6,63.2,8995.84,0.0,2
2023-06-04 18:50:00,22.1,61.7,3998.72,0.0,2
2023-06-04 19:00:00,22.3,60.6,1999.36,0.0,0
2023-06-04 19:10:00,22.3,60.6,999.68,0.0,3
2023-06-04 19:20:00,22.3,57.9,999.68,0.0,2
2023-06-04 19:30:00,22.4,58.6,237.92,0.0,1
2023-06-04 19:40:00,22.1,60,40,0.0,1
2023-06-04 19:50:00,22.4,59.6,4,0.0,1.5
2023-06-04 20:00:00,22.4,59.5,2,0.0,0
2023-06-04 20:10:00,22.2,59.3,2,0.0,0
2023-06-04 20:20:00,22.2,59.5,0,0.0,0
2023-06-04 20:30:00,21.9,57.6,0,0.0,1
2023-06-04 20:40:00,22.3,58.1,2,0.0,1
2023-06-04 20:50:00,21.9,58.2,2,0.0,1
2023-06-04 21:00:00,21.8,58.4,2,0.0,1
2023-06-04 21:10:00,21.9,61.9,2,0.0,1
2023-06-04 21:20:00,21.8,63.4,2,0.0,1
2023-06-04 21:30:00,21.6,65.7,2,0.0,1
2023-06-04 21:40:00,21.2,67.7,2,0.0,1
2023-06-04 21:50:00,21.3,69.2,2,0.0,1
2023-06-04 22:00:00,21.1,69.6,2,0.0,1